Regional Weather Roundup
Issued by NWS

Home | Current Version | Previous Version | Graphics & Text | Print | Product List | Glossary On
Versions: 1 2 3 4 5 6 7 8 9 10 11 12 13 14 15 16 17 18 19 20 21 22 23 24 25 26 27 28 29 30 31 32 33 34 35 36 37 38 39 40 41 42 43 44 45 46 47 48 49 50
000
ASUS43 KIND 230459
RWRIN

WEATHER ROUNDUP FOR INDIANA
NATIONAL WEATHER SERVICE INDIANAPOLIS IN
100 AM EDT WED APR 23 2014

NOTE: "FAIR" INDICATES FEW OR NO CLOUDS BELOW 12,000 FEET WITH NO
SIGNIFICANT WEATHER AND/OR OBSTRUCTIONS TO VISIBILITY.

* - STATION DOES NOT REPORT WEATHER SUCH AS PRECIPITATION OR FOG.

+ - STATION NOT QUALITY CONTROLLED BY THE NATIONAL WEATHER SERVICE.
    USE DATA WITH CAUTION...ESPECIALLY DEWPOINT AND RELATIVE
    HUMIDITY OBSERVATIONS.

INZ001>003-010>013-019-020-230600-
NORTHWEST INDIANA

CITY           SKY/WX    TMP DP  RH WIND       PRES   REMARKS
VALPARAISO     CLEAR     36  27  69 NW3       30.06S

$$

LMZ046-743>745-230600-
SOUTHERN LAKE MICHIGAN

STATION/POSITION TIME  TEMP WIND        PRES
                       AIR  DIR/SP/G
                 (UTC) (F)  (DEG/KT/KT) (MB)
MICHIGAN CITY    0400   39  340/ 10/ 11   N/A

$$

INZ004-005-014>016-021>024-230600-
NORTH CENTRAL INDIANA

CITY           SKY/WX    TMP DP  RH WIND       PRES   REMARKS
GOSHEN         CLEAR     40  28  62 N12       30.02R
SOUTH BEND     CLEAR     37  27  67 N9        30.04S

$$

INZ006>009-017-018-025>027-230600-
NORTHEAST INDIANA

CITY           SKY/WX    TMP DP  RH WIND       PRES   REMARKS
ANGOLA *+      CLEAR     39  28  65 N6        29.99R
FORT WAYNE     CLEAR     39  30  70 NW8       30.00R

$$

INZ028-029-035-036-043>045-051>053-230600-
WEST CENTRAL INDIANA

CITY           SKY/WX    TMP DP  RH WIND       PRES   REMARKS
GREENCASTLE +  CLEAR     43  34  70 NE10      30.03R
LAFAYETTE      CLEAR     41  29  62 N10       30.05R
TERRE HAUTE    CLEAR     47  36  65 NE10      30.02R

$$

INZ030>032-037>040-046>048-054>057-064-065-230600-
CENTRAL INDIANA

CITY           SKY/WX    TMP DP  RH WIND       PRES   REMARKS
INDIANAPOLIS   CLEAR     44  32  62 N10       30.01R
-EAGLE CREEK   CLEAR     43  31  62 N5        30.01R
KOKOMO *+      CLEAR     39  30  70 NW8       30.03R
MT COMFORT *+  CLEAR     39  34  81 N8        30.01S
SHELBYVILLE    CLEAR     44  33  65 N7        30.00R

$$

INZ033-034-041-042-049-050-058-059-230600-
EAST CENTRAL INDIANA

CITY           SKY/WX    TMP DP  RH WIND       PRES   REMARKS
MUNCIE         CLEAR     39  32  76 NW7       29.99S

$$

INZ060-061-067>069-081>083-085>088-230600-
SOUTHWEST INDIANA

CITY           SKY/WX    TMP DP  RH WIND       PRES   REMARKS
EVANSVILLE     CLEAR     56  36  47 N5        29.98S
HUNTINGBURG *+ CLEAR     52  36  54 N3        29.99R

$$

INZ062-063-066-070>080-084-089>092-230600-
SOUTH CENTRAL AND SOUTHEAST INDIANA

CITY           SKY/WX    TMP DP  RH WIND       PRES   REMARKS
BLOOMINGTON    CLEAR     48  32  53 NE6       30.00R
SEYMOUR +      CLEAR     41  21  45 NE3       30.01

$$




USA.gov is the U.S. government's official web portal to all federal, state and local government web resources and services.